Simultaneous Nadir Overpasses (SNOs) Predictions

Prediction of SNOs between GOES-14 and AQUA Satellite Orbit:

Table of predicted SNOs for the next 14.0 days since TLE Epoch: 3/28/2025
Index Date Time (GOES-14) GOES-14 Lat,Lon AQUA Lat,Lon Distance(km) Time Diff (sec)
1 03/29/2025 21:36:14 -0.39,-108.22 0.31,-105.01 364.94 80
2 03/30/2025 09:52:52 0.36,-108.23 0.65,-109.68 165.22 80
3 04/01/2025 09:35:42 0.37,-108.24 -0.36,-104.82 389.00 80
4 04/01/2025 21:52:28 -0.34,-108.24 -0.60,-109.53 145.61 80
5 04/03/2025 21:35:16 -0.36,-108.25 0.39,-104.65 408.99 80
6 04/04/2025 09:51:53 0.33,-108.26 0.58,-109.32 121.14 80
7 04/06/2025 09:34:41 0.35,-108.27 -0.50,-104.46 434.51 80
8 04/06/2025 21:51:25 -0.32,-108.27 -0.53,-109.15 99.63 80
9 04/08/2025 21:34:11 -0.34,-108.29 0.53,-104.28 457.26 80
10 04/09/2025 09:50:46 0.30,-108.30 0.45,-108.93 72.38 80
11 04/11/2025 09:33:30 0.32,-108.32 -0.58,-104.05 485.50 80
